User: anonymous   Login
Location: 5810 Zion Rd, Cleves, OH 45002, USA
(39.1922°N, 84.7113°W)
Time: 21:35:38
(UTC-05:00)
Language:

Courier 1B - Orbit

View from above orbital plane
View from above orbital plane
View from above satellite
View from above satellite

Ground track
Ground track

The orbit data is extracted from the following two-line orbital elements,

1    58U 60013A   19344.45321860  .00000093  00000-0  10634-4 0  9993
2    58  28.3300 338.5503 0164881 296.2468  62.1217 13.46319596913529
Epoch (UTC): 10 December 2019 10:52:38
Eccentricity: 0.0164881
inclination: 28.3300°
perigee height: 963 km
apogee height: 1209 km
right ascension of ascending node: 338.5503°
argument of perigee: 296.2468°
revolutions per day: 13.46319596
mean anomaly at epoch: 62.1217°
orbit number at epoch: 91352

The dashed part of the orbit path shows where the satellite is in the earth's shadow,  

DLR